Hourly Data Report for September 24, 2017

All times are specified in Local Standard Time (LST). Add 1 hour to adjust for Daylight Saving Time where and when it is observed.

CHARLOTTETOWN A
PRINCE EDWARD ISLAND

46°17'21.000" N
63°07'09.000" W
48.50 m
8300301
71706
YYG

Download Data

Hourly Data (September 2017)
Hourly Data Report for September 24, 2017
Temp Definition
°C
Dew Point Temp Definition
°C
Rel Hum Definition
%
Wind Dir Definition
10's deg

Wind Spd Definition
km/h
Visibility Definition
km
Stn Press Definition
kPa
Hmdx Definition


Wind Chill Definition


Weather Definition


TIME
00:00 Legend Double Dagger 12.0 10.2 88 4 10 24.1 101.13     LegendNANA
01:00 Legend Double Dagger 12.6 11.0 90 36 3 24.1 101.18     LegendNANA
02:00 Legend Double Dagger 10.9 10.0 94 36 1 24.1 101.17     Mainly Clear
03:00 Legend Double Dagger 9.9 9.0 94 2 4 24.1 101.17     LegendNANA
04:00 Legend Double Dagger 8.9 8.2 95 4 5 24.1 101.18     LegendNANA
05:00 Legend Double Dagger 9.0 8.3 95 7 4 24.1 101.16     Mainly Clear
06:00 Legend Double Dagger 9.3 8.7 96 36 3 24.1 101.20     LegendNANA
07:00 Legend Double Dagger 12.3 11.7 96 13 9 24.1 101.23     LegendNANA
08:00 Legend Double Dagger 15.0 13.3 90 12 8 24.1 101.25     Mostly Cloudy
09:00 Legend Double Dagger 17.2 12.8 75 15 14 24.1 101.20     LegendNANA
10:00 Legend Double Dagger 18.8 12.2 65 17 28 24.1 101.07     LegendNANA
11:00 Legend Double Dagger 18.6 11.4 62 16 18 24.1 101.11     Cloudy
12:00 Legend Double Dagger 18.9 12.5 66 16 13 24.1 101.02     LegendNANA
13:00 Legend Double Dagger 19.4 13.8 70 14 10 24.1 100.97     LegendNANA
14:00 Legend Double Dagger 20.6 14.6 68 13 10 24.1 100.88     Cloudy
15:00 Legend Double Dagger 20.9 15.8 72 15 9 24.1 100.85 25   LegendNANA
16:00 Legend Double Dagger 20.6 15.7 73 26 5 24.1 100.87 25   LegendNANA
17:00 Legend Double Dagger 20.1 16.4 79 33 7 24.1 100.92 25   Cloudy
18:00 Legend Double Dagger 19.3 16.8 85 31 5 24.1 100.94     LegendNANA
19:00 Legend Double Dagger 19.8 16.3 80 33 10 24.1 100.97     LegendNANA
20:00 Legend Double Dagger 19.0 15.2 78 32 14 24.1 101.02     Cloudy
21:00 Legend Double Dagger 17.3 14.0 81 33 11 24.1 101.05     LegendNANA
22:00 Legend Double Dagger 16.6 14.3 86 32 10 24.1 101.07     LegendNANA
23:00 Legend Double Dagger 15.6 13.7 89 31 10 24.1 101.10     Mostly Cloudy

Notes on Data Quality.

Legend

  • E = Estimated
  • M = Missing
  • NA = Not Available
  • ‡ = Partner data that is not subject to review by the National Climate Archives
Date modified: